Orange, MA

8:11 AM EST on January 23, 2018 (GMT -0500)
Orange Municipal

Weather History for KORE - July, 2012

Change the Weather History Date:

Saturday, July 28, 2012

  Actual Average Record
Temperature  
Mean Temperature 73 °F -  
Max Temperature 81 °F 78 °F 91 °F (2016)
Min Temperature 66 °F 56 °F 46 °F (2001)
Cooling Degree Days 8    
Growing Degree Days 23 (Base 50)    
Moisture  
Dew Point 67 °F    
Average Humidity 94    
Maximum Humidity 100    
Minimum Humidity 58    
Precipitation  
Precipitation 0.68 in - - ()
Sea Level Pressure  
Sea Level Pressure 29.96 in    
Wind  
Wind Speed 1 mph (NNW)    
Max Wind Speed 8 mph    
Max Gust Speed -    
Visibility 6 miles    
Events Fog , Rain , Thunderstorm    
Averages and records for this station are not official NWS values.
T = Trace of Precipitation, MM = Missing Value Source: NWS Daily Summary

Daily Weather History Graph

Daily Weather History Graph

Search for Another Location

Airport or City:

Trip Planner

Search our weather history database for the weather conditions in past years. The results will help you decide how hot, cold, wet, or windy it might be!

Date:

Astronomy

Jul. 28, 2012 Rise Set
Actual Time 5:37 AM EDT 8:13 PM EDT
Civil Twilight 5:05 AM EDT 8:45 PM EDT
Nautical Twilight 4:24 AM EDT 9:25 PM EDT
Astronomical Twilight 3:38 AM EDT 10:11 PM EDT
Moon 4:15 PM EDT (7/28) 12:53 AM EDT (7/28)
Length of Visible Light 15h 40m
Length of Day
14h 35m
Waxing Gibbous, 75% of the Moon is Illuminated
Jul 28
Waxing Gibbous
Aug 1
Full
Aug 9
Last Quarter
Aug 17
New
Aug 24
First Quarter

Hourly Weather History & Observations

Time (EDT) Temp. Heat Index Dew Point Humidity Pressure Visibility Wind Dir Wind Speed Gust Speed Precip Events Conditions
12:09 AM 66.2 °F - 66.2 °F 100% 29.93 in 8.0 mi Calm Calm - N/A   Mostly Cloudy
12:29 AM 66.2 °F - 66.2 °F 100% 29.93 in 10.0 mi Calm Calm - N/A   Mostly Cloudy
12:38 AM 66.2 °F - 66.2 °F 100% 29.93 in 10.0 mi Calm Calm - N/A   Partly Cloudy
12:49 AM 66.2 °F - 66.2 °F 100% 29.93 in 8.0 mi Calm Calm - N/A   Mostly Cloudy
12:52 AM 66.9 °F - 66.0 °F 97% 29.92 in 6.0 mi Calm Calm - N/A   Mostly Cloudy
12:59 AM 66.2 °F - 66.2 °F 100% 29.93 in 1.8 mi Calm Calm - N/A   Mostly Cloudy
1:03 AM 66.2 °F - 66.2 °F 100% 29.92 in 1.0 mi Calm Calm - N/A   Overcast
1:11 AM 66.2 °F - 66.2 °F 100% 29.92 in 0.5 mi Calm Calm - N/A Fog Fog
1:17 AM 66.2 °F - 66.2 °F 100% 29.92 in 1.2 mi Calm Calm - N/A   Overcast
1:19 AM 66.2 °F - 66.2 °F 100% 29.92 in 3.0 mi Calm Calm - N/A   Overcast
1:28 AM 66.2 °F - 66.2 °F 100% 29.93 in 1.8 mi Calm Calm - N/A   Overcast
1:38 AM 66.2 °F - 66.2 °F 100% 29.92 in 1.0 mi Calm Calm - N/A   Overcast
1:49 AM 66.2 °F - 66.2 °F 100% 29.93 in 0.5 mi Calm Calm - N/A Fog Fog
1:52 AM 66.9 °F - 66.0 °F 97% 29.93 in 0.2 mi Calm Calm - N/A Fog Fog
2:52 AM 66.0 °F - 66.0 °F 100% 29.94 in 0.2 mi Calm Calm - N/A Fog Fog
3:30 AM 66.2 °F - 66.2 °F 100% 29.94 in 1.2 mi Calm Calm - N/A   Overcast
3:37 AM 66.2 °F - 66.2 °F 100% 29.94 in 0.8 mi Calm Calm - N/A   Mist
3:52 AM 66.0 °F - 66.0 °F 100% 29.94 in 0.2 mi Calm Calm - N/A Fog Fog
4:52 AM 66.0 °F - 66.0 °F 100% 29.95 in 0.5 mi Calm Calm - N/A Fog Fog
5:40 AM 66.2 °F - 66.2 °F 100% 29.96 in 1.2 mi Calm Calm - N/A   Overcast
5:43 AM 66.2 °F - 66.2 °F 100% 29.96 in 2.5 mi Calm Calm - N/A   Overcast
5:52 AM 66.0 °F - 66.0 °F 100% 29.96 in 6.0 mi Calm Calm - N/A   Overcast
6:05 AM 66.2 °F - 66.2 °F 100% 29.96 in 1.5 mi Calm Calm - N/A   Overcast
6:29 AM 66.2 °F - 66.2 °F 100% 29.97 in 1.2 mi Calm Calm - N/A   Overcast
6:35 AM 66.2 °F - 66.2 °F 100% 29.97 in 2.0 mi Calm Calm - N/A   Overcast
6:44 AM 66.2 °F - 66.2 °F 100% 29.97 in 5.0 mi Calm Calm - N/A   Overcast
6:52 AM 66.0 °F - 66.0 °F 100% 29.97 in 5.0 mi North 3.5 mph - N/A   Overcast
7:52 AM 66.9 °F - 66.0 °F 97% 29.99 in 9.0 mi NW 3.5 mph - N/A   Overcast
8:32 AM 69.8 °F - 66.2 °F 88% 29.99 in 10.0 mi Calm Calm - N/A   Overcast
8:52 AM 72.0 °F - 66.9 °F 84% 29.99 in 10.0 mi Calm Calm - N/A   Mostly Cloudy
9:00 AM 71.6 °F - 66.2 °F 83% 29.99 in 10.0 mi Calm Calm - N/A   Scattered Clouds
9:52 AM 75.9 °F - 66.9 °F 74% 29.97 in 10.0 mi Calm Calm - 0.01 in   Clear
10:52 AM 79.0 °F - 64.0 °F 60% 29.96 in 10.0 mi East 6.9 mph - N/A   Overcast
11:52 AM 80.1 °F 81.7 °F 64.0 °F 58% 29.96 in 10.0 mi NE 8.1 mph - N/A   Mostly Cloudy
12:52 PM 78.1 °F - 66.0 °F 66% 29.95 in 10.0 mi NE 8.1 mph - 0.00 in Rain Light Rain
1:43 PM 73.4 °F - 69.8 °F 88% 29.96 in 5.0 mi NW 3.5 mph - 0.08 in Rain , Thunderstorm Light Thunderstorms and Rain
1:52 PM 72.0 °F - 70.0 °F 93% 29.96 in 3.0 mi NW 5.8 mph - 0.11 in Rain , Thunderstorm Thunderstorms and Rain
2:15 PM 71.6 °F - 69.8 °F 94% 29.97 in 3.0 mi WNW 6.9 mph - 0.10 in Rain Rain
2:42 PM 71.6 °F - 69.8 °F 94% 29.97 in 4.0 mi NW 3.5 mph - 0.19 in Rain , Thunderstorm Thunderstorms and Rain
2:52 PM 71.1 °F - 70.0 °F 96% 29.97 in 3.0 mi Calm Calm - 0.22 in Rain Rain
3:52 PM 72.0 °F - 70.0 °F 93% 29.96 in 8.0 mi Calm Calm - 0.08 in Rain , Thunderstorm Light Rain
4:08 PM 71.6 °F - 69.8 °F 94% 29.96 in 4.0 mi Calm Calm - 0.02 in Rain Light Rain
4:49 PM 71.6 °F - 69.8 °F 94% 29.97 in 4.0 mi Calm Calm - 0.11 in Rain Rain
4:52 PM 71.1 °F - 70.0 °F 96% 29.96 in 4.0 mi South 3.5 mph - 0.12 in Rain Rain
5:11 PM 71.6 °F - 69.8 °F 94% 29.96 in 7.0 mi East 4.6 mph - 0.04 in Rain Light Rain
5:52 PM 70.0 °F - 68.0 °F 93% 29.96 in 7.0 mi Calm Calm - 0.11 in Rain Light Rain
5:59 PM 69.8 °F - 68.0 °F 94% 29.95 in 6.0 mi Calm Calm - 0.01 in Rain Rain
6:17 PM 69.8 °F - 68.0 °F 94% 29.96 in 8.0 mi West 3.5 mph - 0.02 in Rain Light Rain
6:35 PM 69.8 °F - 68.0 °F 94% 29.95 in 10.0 mi Calm Calm - 0.03 in Rain Light Rain
6:52 PM 70.0 °F - 68.0 °F 93% 29.95 in 10.0 mi Calm Calm - 0.03 in Rain Light Rain
7:48 PM 69.8 °F - 66.2 °F 88% 29.96 in 10.0 mi Calm Calm - 0.00 in   Scattered Clouds
7:52 PM 70.0 °F - 66.9 °F 90% 29.96 in 10.0 mi NNE 3.5 mph - 0.00 in   Scattered Clouds
8:52 PM 68.0 °F - 66.0 °F 93% 29.96 in 10.0 mi North 3.5 mph - N/A   Mostly Cloudy
9:15 PM 68.0 °F - 66.2 °F 94% 29.98 in 10.0 mi NW 3.5 mph - N/A   Mostly Cloudy
9:52 PM 69.1 °F - 66.0 °F 90% 29.98 in 10.0 mi NNW 4.6 mph - 0.00 in   Overcast
10:43 PM 68.0 °F - 66.2 °F 94% 29.98 in 10.0 mi North 3.5 mph - N/A   Overcast
10:52 PM 68.0 °F - 64.9 °F 90% 29.99 in 10.0 mi North 3.5 mph - N/A   Overcast
11:52 PM 66.9 °F - 64.9 °F 93% 29.99 in 10.0 mi NW 3.5 mph - N/A   Overcast